Point Mugu, CA

2:10 AM PDT on April 23, 2017 (GMT -0700)
Point Mugu Naval Air Station

Weather History for KNTD - February, 2013

Change the Weather History Date:

Tuesday, February 19, 2013

  Actual Average Record
Temperature  
Mean Temperature 54 °F -  
Max Temperature 57 °F 60 °F 70 °F (2009)
Min Temperature 50 °F 44 °F 42 °F (2002)
Degree Days  
Heating Degree Days 12    
Growing Degree Days 4 (Base 50)    
Moisture  
Dew Point 44 °F    
Average Humidity 70    
Maximum Humidity 82    
Minimum Humidity 51    
Precipitation  
Precipitation 0.05 in - - ()
Sea Level Pressure  
Sea Level Pressure 29.89 in    
Wind  
Wind Speed 6 mph (West)    
Max Wind Speed 21 mph    
Max Gust Speed 31 mph    
Visibility 6 miles    
Events Rain    
Averages and records for this station are not official NWS values.
T = Trace of Precipitation, MM = Missing Value Source: NWS Daily Summary

Daily Weather History Graph

Daily Weather History Graph

Search for Another Location

Airport or City:

Trip Planner

Search our weather history database for the weather conditions in past years. The results will help you decide how hot, cold, wet, or windy it might be!

Date:

Astronomy

Feb. 19, 2013 Rise Set
Actual Time 6:36 AM PST 5:44 PM PST
Civil Twilight 6:11 AM PST 6:09 PM PST
Nautical Twilight 5:42 AM PST 6:39 PM PST
Astronomical Twilight 5:12 AM PST 7:08 PM PST
Moon 12:27 PM PST (2/19) 2:04 AM PST (2/19)
Length of Visible Light 11h 58m
Length of Day
11h 07m
Waxing Gibbous, 68% of the Moon is Illuminated
Feb 19
Waxing Gibbous
Feb 25
Full
Mar 4
Last Quarter
Mar 11
New
Mar 19
First Quarter

Hourly Weather History & Observations

Time (PST) Temp. Dew Point Humidity Pressure Visibility Wind Dir Wind Speed Gust Speed Precip Events Conditions
12:19 AM - - N/A% 29.98 in - Calm Calm - N/A   Overcast
12:54 AM - - N/A% 29.99 in - South 5.8 mph - N/A   Overcast
1:00 AM - - N/A% - - North - - N/A   Unknown
1:54 AM - - N/A% 29.98 in - Calm Calm - N/A   Overcast
2:54 AM - - N/A% 29.97 in - Calm Calm - N/A   Overcast
3:22 AM - - N/A% 29.95 in - Calm Calm - N/A   Overcast
3:49 AM - - N/A% 29.95 in - Calm Calm - N/A   Overcast
3:54 AM - - N/A% 29.96 in - Calm Calm - N/A   Overcast
4:54 AM - - N/A% 29.96 in - NW 5.8 mph - N/A   Overcast
5:54 AM 57.2 °F 39.4 °F 51% 29.96 in 6.0 mi WNW 3.5 mph - N/A Rain Light Rain
6:07 AM 57.2 °F 42.8 °F 59% 29.95 in 5.0 mi Calm Calm - 0.00 in   Overcast
6:54 AM 52.5 °F 45.9 °F 78% 29.95 in 6.0 mi Calm Calm - 0.00 in   Haze
7:11 AM 51.8 °F 46.4 °F 82% 29.95 in 6.0 mi Calm Calm - N/A   Haze
7:23 AM 51.8 °F 46.4 °F 82% 29.95 in 6.0 mi Calm Calm - N/A   Haze
7:51 AM 53.6 °F 46.4 °F 77% 29.96 in 6.0 mi Calm Calm - N/A   Haze
7:54 AM 53.2 °F 46.6 °F 78% 29.96 in 6.0 mi ESE 3.5 mph - N/A   Haze
8:54 AM 53.8 °F 43.7 °F 69% 29.96 in 6.0 mi West 6.9 mph - N/A   Haze
9:54 AM 54.7 °F 45.0 °F 70% 29.95 in 6.0 mi West 13.8 mph 19.6 mph N/A   Haze
10:54 AM 55.0 °F 44.6 °F 68% 29.94 in 7.0 mi WSW 17.3 mph - 0.00 in   Mostly Cloudy
11:54 AM 56.1 °F 44.6 °F 65% 29.91 in 7.0 mi West 17.3 mph 23.0 mph N/A   Mostly Cloudy
12:54 PM 56.3 °F 44.4 °F 64% 29.90 in 7.0 mi West 20.7 mph - N/A   Mostly Cloudy
1:54 PM 57.6 °F 43.7 °F 60% 29.87 in 7.0 mi West 19.6 mph 26.5 mph N/A   Mostly Cloudy
2:54 PM 56.5 °F 42.8 °F 60% 29.85 in 7.0 mi West 17.3 mph 25.3 mph N/A   Mostly Cloudy
4:54 PM 54.3 °F 43.5 °F 67% 29.81 in 7.0 mi West 15.0 mph 23.0 mph N/A   Overcast
5:54 PM 53.1 °F 44.1 °F 71% 29.80 in 6.0 mi WSW 15.0 mph 24.2 mph 0.00 in Rain Light Rain
6:20 PM - - N/A% - - North - - N/A   Unknown
6:31 PM 51.8 °F 44.6 °F 76% 29.78 in 7.0 mi West 13.8 mph - 0.00 in   Mostly Cloudy
6:54 PM 52.5 °F 44.1 °F 73% 29.78 in 7.0 mi WSW 8.1 mph 17.3 mph 0.00 in   Mostly Cloudy
6:58 PM 51.8 °F 44.6 °F 76% 29.78 in 6.0 mi WSW 16.1 mph 21.9 mph 0.00 in Rain Light Rain
7:54 PM 51.8 °F 46.4 °F 82% 29.77 in 6.0 mi West 11.5 mph 20.7 mph 0.05 in Rain Rain
8:17 PM 50.0 °F 42.8 °F 76% 29.77 in 6.0 mi WNW 6.9 mph 19.6 mph 0.00 in Rain Rain
8:54 PM 50.0 °F 40.5 °F 70% 29.77 in 7.0 mi WNW 9.2 mph 20.7 mph 0.00 in   Overcast
9:42 PM 50.0 °F 41.0 °F 71% 29.76 in 7.0 mi West 16.1 mph 23.0 mph 0.00 in   Overcast
9:54 PM 50.4 °F 40.1 °F 68% 29.77 in 7.0 mi West 18.4 mph 29.9 mph N/A   Overcast
10:54 PM 50.0 °F 39.7 °F 68% 29.75 in 7.0 mi West 20.7 mph 31.1 mph N/A   Scattered Clouds
11:54 PM - - N/A% 29.76 in - WNW 19.6 mph 31.1 mph N/A   Clear